Де-Мойн

США     41°34′46″N   93°38′41″W
темп.,
°C
ветер,
м/с
пор.,
м/с
влажн.,
%
обл.,
%
осадки,
мм/ч
давл.,
гПа
погр.,
м
4 июля, пн
пн401:00+21юв31095100 0.0 1015229
04:00+20ююв3896100 0.6 1014193
07:00+22ююв3797100 2.4 1013238
10:00+25ю61184100 0.1 1013427
13:00+30ю8116260 1.1 10121054
16:00+35ююз812495 0.0 10091996
19:00+32юз711575 0.0 1009965
22:00+29ююз614685 0.0 1009715
5 июля, вт
вт501:00+27ююз5157663 0.0 1010501
04:00+26юз515743 0.0 1010463
07:00+25ююз413750 0.0 1010409
10:00+32юз58530 0.0 1010635
13:00+37юз56354 0.0 10091508
16:00+38ююз67310 0.0 10082321
19:00+34ююз485226 0.0 1008300
22:00+27ю4775100 0.0 1010117
6 июля, ср
ср601:00+26ю3980100 0.0 1010206
04:00+25ю3782100 0.0 1010163
07:00+23ююз41088100 0.7 1011206
10:00+27ююв5874100 0.0 1011327
13:00+28юв2467100 0.0 1011301
16:00+28вюв4670100 0.1 1010175
19:00+27вюв48759 0.1 1009281
22:00+24вюв388813 0.0 1010161
7 июля, чт
чт701:00+26ююз3978100 0.2 1009230
04:00+22вюв3897100 1.3 1011209
07:00+22в4896100 2.0 1011225
10:00+28вюв3372100 0.0 1011443
13:00+29в2372100 0.0 1011184
16:00+32вюв225379 0.0 10111028
19:00+28св5876100 0.0 1010349
22:00+23св37913 0.0 1012167
8 июля, пт
пт801:00+21всв3796100 0.1 1013163
04:00+21св3797100 1.5 1013184
07:00+22в2792100 1.6 1014244
10:00+27св45735 0.0 1014617
13:00+31св335927 0.0 10141260
16:00+32ссв445860 0.1 10141550
19:00+29ссв45690 0.4 1014852
22:00+24ссв36940 0.1 1016122